contact:dominique.lefevre@mio.osupytheas.fr,maurice.libes@osupytheas.fr
Project:EMSO http://www.emso-fr.org/EMSO-France
DOI:https://doi.org/10.17882/95265
Depth:1000m
Lat:42.79
Lon:6.043
TIME,TIME_QC,CNDC,DEPH,CNDC_QC,PRES,DENS,DENS_QC,PRES_QC,TEMP,TEMP_QC,TPOT,PSAL,OSAT,OSAT_QC,DOX1,DOX2,DOX_QC
units:,,Siemens per metre,meters,,Decibars,Kilograms per cubic metre,,,degree_Celsius,,degree_Celsius,,Micromoles per kilogram,,Micromoles per litre,Micromoles per kilogram,
2018-05-02T16:01:39,2,4.540628,1000.0,2,967.588,29.1111,2,2,13.2901,2,13.147,38.5442,250.10451,2,419.6,407.73,2
2018-05-02T16:31:40,2,4.539582,1000.0,2,967.564,29.1114,2,2,13.282,2,13.1389,38.5423,250.14838,2,201.0,195.32,2
2018-05-02T17:01:39,2,4.53965,1000.0,2,967.555,29.1112,2,2,13.2827,2,13.1395,38.5424,250.14517,2,193.05,187.59,2
2018-05-02T17:31:39,2,4.539481,1000.0,2,967.52,29.1114,2,2,13.2813,2,13.1381,38.5422,250.15257,2,192.93,187.48,2
2018-05-02T18:01:40,2,4.539569,1000.0,2,967.52,29.1113,2,2,13.282,2,13.1388,38.5423,250.1488,2,191.79,186.36,2
2018-05-02T18:31:39,2,4.539216,1000.0,2,967.508,29.1114,2,2,13.2792,2,13.1361,38.5417,250.16365,2,190.28,184.9,2
2018-05-02T19:01:39,2,4.53872,1000.0,2,967.475,29.1114,2,2,13.2756,2,13.1325,38.5407,250.18386,2,188.94,183.6,2
2018-05-02T19:31:40,2,4.539168,1000.0,2,967.464,29.1109,2,2,13.2794,2,13.1363,38.5411,250.16372,2,187.04,181.75,2
2018-05-02T20:01:39,2,4.539284,1000.0,2,967.475,29.1111,2,2,13.2801,2,13.137,38.5414,250.15951,2,186.07,180.81,2
2018-05-02T20:31:39,2,4.540309,1000.0,2,967.453,29.1108,2,2,13.2881,2,13.1449,38.5432,250.1164,2,186.25,180.99,2
2018-05-02T21:01:40,2,4.539616,1000.0,2,967.441,29.1107,2,2,13.283,2,13.1398,38.5418,250.14473,2,186.13,180.86,2
2018-05-02T21:31:39,2,4.53853,1000.0,2,967.419,29.1117,2,2,13.2739,2,13.1308,38.5406,250.19251,2,187.27,181.97,2
2018-05-02T22:01:39,2,4.538164,1000.0,2,967.42,29.1112,2,2,13.2716,2,13.1286,38.5394,250.20599,2,186.86,181.58,2
2018-05-02T22:31:40,2,4.538632,1000.0,2,967.396,29.1109,2,2,13.2754,2,13.1324,38.54,250.18573,2,186.18,180.92,2
2018-05-02T23:01:39,2,4.539073,1000.0,2,967.396,29.1111,2,2,13.2785,2,13.1354,38.5411,250.16825,2,186.07,180.8,2
2018-05-02T23:31:39,2,4.538354,1000.0,2,967.407,29.1114,2,2,13.2728,2,13.1298,38.54,250.19889,2,185.73,180.48,2
2018-05-03T00:01:40,2,4.537851,1000.0,2,967.454,29.1114,2,2,13.2691,2,13.1261,38.5389,250.2195,2,185.59,180.34,2
2018-05-03T00:31:39,2,4.537206,1000.0,2,967.441,29.1116,2,2,13.264,2,13.121,38.5379,250.24682,2,185.34,180.1,2
2018-05-03T01:01:39,2,4.537152,1000.0,2,967.486,29.1112,2,2,13.264,2,13.121,38.5373,250.24776,2,184.58,179.36,2
2018-05-03T01:31:40,2,4.536718,1000.0,2,967.51,29.1114,2,2,13.2606,2,13.1176,38.5366,250.2663,2,183.82,178.62,2
2018-05-03T02:01:39,2,4.538164,1000.0,2,967.555,29.1114,2,2,13.2714,2,13.1283,38.5395,250.20678,2,183.81,178.61,2
2018-05-03T02:31:39,2,4.537688,1000.0,2,967.611,29.1113,2,2,13.2679,2,13.1248,38.5385,250.22625,2,183.99,178.79,2
2018-05-03T03:01:40,2,4.537546,1000.0,2,967.61,29.1112,2,2,13.267,2,13.1239,38.5381,250.23162,2,184.23,179.02,2
2018-05-03T03:31:39,2,4.539182,1000.0,2,967.621,29.1112,2,2,13.2792,2,13.1361,38.5413,250.1643,2,183.69,178.49,2
2018-05-03T04:01:39,2,4.539345,1000.0,2,967.644,29.1111,2,2,13.2805,2,13.1374,38.5416,250.15746,2,183.45,178.26,2
2018-05-03T04:31:40,2,4.539447,1000.0,2,967.621,29.111,2,2,13.2814,2,13.1383,38.5417,250.15276,2,183.14,177.96,2
2018-05-03T05:01:39,2,4.540431,1000.0,2,967.644,29.1109,2,2,13.2888,2,13.1456,38.5436,250.1122,2,182.81,177.64,2
2018-05-03T05:31:39,2,4.540105,1000.0,2,967.61,29.1109,2,2,13.2864,2,13.1432,38.5429,250.12543,2,182.81,177.64,2
2018-05-03T06:01:40,2,4.539481,1000.0,2,967.609,29.1107,2,2,13.2819,2,13.1388,38.5415,250.15057,2,182.98,177.8,2
2018-05-03T06:31:39,2,4.539243,1000.0,2,967.589,29.111,2,2,13.2799,2,13.1367,38.5413,250.16119,2,182.99,177.81,2
2018-05-03T07:01:39,2,4.538917,1000.0,2,967.588,29.1109,2,2,13.2775,2,13.1344,38.5406,250.17445,2,183.08,177.9,2
2018-05-03T07:31:40,2,4.539569,1000.0,2,967.576,29.1105,2,2,13.2828,2,13.1397,38.5414,250.14609,2,183.0,177.82,2
2018-05-03T08:01:39,2,4.539209,1000.0,2,967.544,29.111,2,2,13.2796,2,13.1365,38.5412,250.16241,2,182.92,177.75,2
2018-05-03T08:31:39,2,4.538428,1000.0,2,967.532,29.1111,2,2,13.2737,2,13.1306,38.5398,250.19498,2,183.1,177.92,2
2018-05-03T09:01:40,2,4.538109,1000.0,2,967.51,29.111,2,2,13.2714,2,13.1284,38.539,250.20765,2,183.23,178.05,2
2018-05-03T09:31:39,2,4.537926,1000.0,2,967.475,29.1114,2,2,13.2696,2,13.1265,38.5391,250.21666,2,183.29,178.1,2
2018-05-03T10:01:39,2,4.537858,1000.0,2,967.464,29.1113,2,2,13.2692,2,13.1262,38.5388,250.21894,2,183.32,178.13,2
2018-05-03T10:31:40,2,4.537614,1000.0,2,967.441,29.1113,2,2,13.2674,2,13.1244,38.5383,250.22898,2,183.4,178.21,2
2018-05-03T11:01:39,2,4.537349,1000.0,2,967.43,29.1116,2,2,13.2651,2,13.1221,38.5382,250.24098,2,183.5,178.31,2
2018-05-03T11:31:39,2,4.53722,1000.0,2,967.397,29.1115,2,2,13.2643,2,13.1213,38.5377,250.24564,2,183.51,178.32,2
2018-05-03T12:01:40,2,4.537288,1000.0,2,967.409,29.1115,2,2,13.2648,2,13.1218,38.5379,250.2429,2,183.48,178.29,2
2018-05-03T12:31:39,2,4.537403,1000.0,2,967.397,29.1112,2,2,13.2659,2,13.1229,38.5378,250.23729,2,183.32,178.13,2
2018-05-03T13:01:39,2,4.537485,1000.0,2,967.409,29.1115,2,2,13.2663,2,13.1233,38.5383,250.23479,2,183.47,178.28,2
2018-05-03T13:31:40,2,4.538211,1000.0,2,967.431,29.1111,2,2,13.2721,2,13.1291,38.5393,250.20359,2,183.21,178.02,2
2018-05-03T14:01:39,2,4.539026,1000.0,2,967.464,29.1107,2,2,13.2785,2,13.1354,38.5406,250.16909,2,182.82,177.65,2
2018-05-03T14:31:39,2,4.538679,1000.0,2,967.475,29.1111,2,2,13.2756,2,13.1325,38.5403,250.18454,2,183.02,177.85,2
2018-05-03T15:01:40,2,4.538089,1000.0,2,967.486,29.111,2,2,13.2712,2,13.1281,38.539,250.20866,2,183.21,178.03,2
2018-05-03T15:31:39,2,4.537288,1000.0,2,967.499,29.1113,2,2,13.2649,2,13.1219,38.5377,250.24251,2,183.3,178.11,2
2018-05-03T16:01:39,2,4.53682,1000.0,2,967.521,29.1112,2,2,13.2615,2,13.1185,38.5367,250.26162,2,183.42,178.23,2
2018-05-03T16:31:40,2,4.536148,1000.0,2,967.509,29.1117,2,2,13.256,2,13.113,38.5358,250.29077,2,183.5,178.31,2
2018-05-03T17:01:39,2,4.535781,1000.0,2,967.511,29.1117,2,2,13.2532,2,13.1103,38.5351,250.30586,2,183.89,178.69,2
2018-05-03T17:31:39,2,4.535917,1000.0,2,967.486,29.112,2,2,13.2539,2,13.111,38.5357,250.30127,2,183.86,178.66,2
2018-05-03T18:01:40,2,4.535774,1000.0,2,967.487,29.1118,2,2,13.2531,2,13.1102,38.5351,250.30641,2,183.96,178.75,2
2018-05-03T18:31:39,2,4.536854,1000.0,2,967.465,29.1114,2,2,13.2616,2,13.1186,38.5369,250.26055,2,183.58,178.38,2
2018-05-03T19:01:39,2,4.537919,1000.0,2,967.476,29.111,2,2,13.2699,2,13.1269,38.5387,250.21563,2,183.31,178.13,2
2018-05-03T19:31:40,2,4.537682,1000.0,2,967.441,29.1115,2,2,13.2677,2,13.1247,38.5387,250.22693,2,183.32,178.14,2
2018-05-03T20:01:39,2,4.537804,1000.0,2,967.441,29.1112,2,2,13.2689,2,13.1258,38.5387,250.22098,2,183.32,178.13,2
2018-05-03T20:31:39,2,4.537987,1000.0,2,967.442,29.1114,2,2,13.2701,2,13.127,38.5392,250.21401,2,183.19,178.01,2
2018-05-03T21:01:40,2,4.537967,1000.0,2,967.407,29.1111,2,2,13.2702,2,13.1272,38.5389,250.21386,2,183.31,178.13,2
2018-05-03T21:31:39,2,4.538014,1000.0,2,967.407,29.1112,2,2,13.2705,2,13.1275,38.5391,250.21215,2,183.33,178.14,2
2018-05-03T22:01:39,2,4.537967,1000.0,2,967.385,29.1115,2,2,13.2699,2,13.1268,38.5393,250.215,2,183.27,178.08,2
2018-05-03T22:31:40,2,4.537173,1000.0,2,967.385,29.1113,2,2,13.2641,2,13.1211,38.5375,250.24711,2,183.33,178.14,2
2018-05-03T23:01:39,2,4.537077,1000.0,2,967.375,29.1119,2,2,13.2628,2,13.1198,38.5379,250.25283,2,183.43,178.24,2
2018-05-03T23:31:39,2,4.536813,1000.0,2,967.375,29.1118,2,2,13.2609,2,13.118,38.5372,250.26346,2,183.53,178.34,2
2018-05-04T00:01:40,2,4.53665,1000.0,2,967.362,29.1116,2,2,13.2599,2,13.1169,38.5368,250.26962,2,183.7,178.51,2
2018-05-04T00:31:39,2,4.536304,1000.0,2,967.385,29.1113,2,2,13.2575,2,13.1146,38.5358,250.28301,2,184.09,178.89,2
2018-05-04T01:01:39,2,4.535143,1000.0,2,967.386,29.112,2,2,13.2482,2,13.1053,38.5341,250.33298,2,184.57,179.35,2
2018-05-04T01:31:40,2,4.534824,1000.0,2,967.431,29.1123,2,2,13.2454,2,13.1026,38.5338,250.34731,2,185.03,179.79,2
2018-05-04T02:01:39,2,4.535313,1000.0,2,967.453,29.1121,2,2,13.2493,2,13.1064,38.5346,250.32652,2,184.7,179.48,2
2018-05-04T02:31:39,2,4.535184,1000.0,2,967.476,29.1121,2,2,13.2483,2,13.1054,38.5343,250.33191,2,184.82,179.59,2
2018-05-04T03:01:40,2,4.536792,1000.0,2,967.52,29.1114,2,2,13.2611,2,13.1181,38.5368,250.26345,2,183.79,178.59,2
2018-05-04T03:31:39,2,4.536324,1000.0,2,967.544,29.1117,2,2,13.2573,2,13.1143,38.5362,250.28371,2,183.86,178.66,2
2018-05-04T04:01:39,2,4.536202,1000.0,2,967.555,29.1122,2,2,13.2558,2,13.1129,38.5364,250.29035,2,183.82,178.62,2
2018-05-04T04:31:40,2,4.535625,1000.0,2,967.566,29.1122,2,2,13.2516,2,13.1086,38.5352,250.31402,2,184.08,178.87,2
2018-05-04T05:01:39,2,4.535605,1000.0,2,967.577,29.1121,2,2,13.2515,2,13.1086,38.5351,250.3146,2,183.88,178.67,2
2018-05-04T05:31:39,2,4.536589,1000.0,2,967.577,29.1114,2,2,13.2596,2,13.1166,38.5364,250.27172,2,183.57,178.38,2
2018-05-04T06:01:40,2,4.537213,1000.0,2,967.577,29.1118,2,2,13.2638,2,13.1208,38.5381,250.24749,2,183.37,178.19,2
2018-05-04T06:31:39,2,4.537519,1000.0,2,967.589,29.1116,2,2,13.2663,2,13.1233,38.5384,250.23412,2,183.24,178.06,2
2018-05-04T07:01:39,2,4.537464,1000.0,2,967.565,29.1113,2,2,13.2662,2,13.1232,38.5381,250.23547,2,183.2,178.02,2
2018-05-04T07:31:40,2,4.536351,1000.0,2,967.566,29.1115,2,2,13.2577,2,13.1147,38.536,250.28189,2,183.56,178.37,2
2018-05-04T08:01:39,2,4.535639,1000.0,2,967.544,29.1121,2,2,13.2518,2,13.1088,38.5352,250.31309,2,184.22,179.01,2
2018-05-04T08:31:39,2,4.534987,1000.0,2,967.543,29.112,2,2,13.2469,2,13.104,38.5338,250.33984,2,184.77,179.54,2
2018-05-04T09:01:40,2,4.534824,1000.0,2,967.521,29.1122,2,2,13.2456,2,13.1027,38.5336,250.34692,2,185.1,179.86,2
2018-05-04T09:31:39,2,4.534702,1000.0,2,967.51,29.112,2,2,13.2448,2,13.1019,38.5332,250.35148,2,185.22,179.98,2
2018-05-04T10:01:39,2,4.534682,1000.0,2,967.499,29.1117,2,2,13.245,2,13.1021,38.5328,250.35113,2,185.2,179.96,2
2018-05-04T10:31:40,2,4.534512,1000.0,2,967.465,29.112,2,2,13.2435,2,13.1006,38.5328,250.35899,2,185.26,180.02,2
2018-05-04T11:01:39,2,4.534363,1000.0,2,967.431,29.1123,2,2,13.242,2,13.0991,38.5329,250.36629,2,185.21,179.98,2
2018-05-04T11:31:39,2,4.533888,1000.0,2,967.431,29.1122,2,2,13.2385,2,13.0957,38.5318,250.3855,2,185.31,180.07,2
2018-05-04T12:01:40,2,4.534499,1000.0,2,967.409,29.1124,2,2,13.243,2,13.1001,38.5332,250.36079,2,185.05,179.81,2
2018-05-04T12:31:39,2,4.535625,1000.0,2,967.42,29.1121,2,2,13.2517,2,13.1088,38.5352,250.31346,2,184.78,179.55,2
2018-05-04T13:01:39,2,4.536535,1000.0,2,967.397,29.112,2,2,13.2586,2,13.1156,38.5369,250.27571,2,184.52,179.3,2
2018-05-04T13:31:40,2,4.536494,1000.0,2,967.396,29.1118,2,2,13.2584,2,13.1155,38.5367,250.27685,2,184.38,179.17,2
2018-05-04T14:01:39,2,4.536392,1000.0,2,967.407,29.1118,2,2,13.2577,2,13.1148,38.5364,250.28086,2,184.46,179.24,2
2018-05-04T14:31:39,2,4.535503,1000.0,2,967.409,29.1119,2,2,13.251,2,13.1081,38.5347,250.31779,2,184.71,179.49,2
2018-05-04T15:01:40,2,4.535103,1000.0,2,967.421,29.1118,2,2,13.2481,2,13.1052,38.5338,250.33392,2,184.78,179.56,2
2018-05-04T15:31:39,2,4.535333,1000.0,2,967.431,29.1119,2,2,13.2497,2,13.1068,38.5344,250.32501,2,184.74,179.52,2
2018-05-04T16:01:39,2,4.535225,1000.0,2,967.431,29.1117,2,2,13.2491,2,13.1062,38.534,250.32867,2,184.77,179.55,2
2018-05-04T16:31:40,2,4.534634,1000.0,2,967.466,29.1119,2,2,13.2444,2,13.1016,38.533,250.35373,2,184.83,179.6,2
2018-05-04T17:01:39,2,4.534377,1000.0,2,967.465,29.1121,2,2,13.2423,2,13.0994,38.5327,250.36517,2,184.61,179.39,2
2018-05-04T17:31:39,2,4.534648,1000.0,2,967.465,29.1122,2,2,13.2442,2,13.1014,38.5333,250.3542,2,184.52,179.3,2
2018-05-04T18:01:40,2,4.535157,1000.0,2,967.465,29.1121,2,2,13.2481,2,13.1052,38.5343,250.33304,2,184.52,179.3,2
2018-05-04T18:31:39,2,4.535632,1000.0,2,967.454,29.1117,2,2,13.2521,2,13.1092,38.5348,250.31199,2,184.22,179.01,2
2018-05-04T19:01:39,2,4.535802,1000.0,2,967.454,29.112,2,2,13.2531,2,13.1102,38.5354,250.30594,2,184.07,178.87,2
2018-05-04T19:31:40,2,4.535686,1000.0,2,967.442,29.1122,2,2,13.252,2,13.1091,38.5355,250.31153,2,183.89,178.69,2
2018-05-04T20:01:39,2,4.534865,1000.0,2,967.442,29.1121,2,2,13.2459,2,13.1031,38.5337,250.34503,2,183.96,178.75,2
2018-05-04T20:31:39,2,4.534214,1000.0,2,967.431,29.1127,2,2,13.2405,2,13.0977,38.5329,250.37361,2,184.18,178.97,2
2018-05-04T21:01:40,2,4.534587,1000.0,2,967.42,29.1122,2,2,13.2438,2,13.101,38.5332,250.35656,2,184.25,179.04,2
2018-05-04T21:31:39,2,4.535496,1000.0,2,967.42,29.1116,2,2,13.2512,2,13.1083,38.5344,250.31722,2,183.95,178.75,2
2018-05-04T22:01:39,2,4.535842,1000.0,2,967.42,29.1119,2,2,13.2535,2,13.1106,38.5354,250.30385,2,183.82,178.62,2
2018-05-04T22:31:40,2,4.53608,1000.0,2,967.397,29.1118,2,2,13.2554,2,13.1125,38.5358,250.29366,2,183.69,178.49,2
2018-05-04T23:01:39,2,4.53724,1000.0,2,967.374,29.1118,2,2,13.2641,2,13.1212,38.5381,250.24574,2,183.44,178.25,2
2018-05-04T23:31:39,2,4.537519,1000.0,2,967.385,29.1114,2,2,13.2666,2,13.1236,38.5382,250.23305,2,183.34,178.15,2
2018-05-05T00:01:40,2,4.537403,1000.0,2,967.374,29.1115,2,2,13.2656,2,13.1226,38.5381,250.23819,2,183.34,178.15,2
2018-05-05T00:31:39,2,4.537478,1000.0,2,967.374,29.1116,2,2,13.2661,2,13.1231,38.5384,250.23533,2,183.43,178.24,2
2018-05-05T01:01:39,2,4.537797,1000.0,2,967.397,29.1114,2,2,13.2687,2,13.1256,38.5388,250.22175,2,183.3,178.11,2
2018-05-05T01:31:40,2,4.537037,1000.0,2,967.397,29.1115,2,2,13.2629,2,13.1199,38.5374,250.2533,2,183.57,178.38,2
2018-05-05T02:01:39,2,4.536365,1000.0,2,967.419,29.1117,2,2,13.2576,2,13.1147,38.5363,250.28178,2,183.95,178.75,2
2018-05-05T02:31:39,2,4.535937,1000.0,2,967.431,29.1117,2,2,13.2544,2,13.1115,38.5354,250.29928,2,184.14,178.93,2
2018-05-05T03:01:40,2,4.535089,1000.0,2,967.465,29.112,2,2,13.2478,2,13.1049,38.534,250.33533,2,184.32,179.11,2
2018-05-05T03:31:39,2,4.534879,1000.0,2,967.5,29.1124,2,2,13.2458,2,13.1029,38.5339,250.3453,2,184.4,179.18,2
2018-05-05T04:01:39,2,4.534953,1000.0,2,967.499,29.1121,2,2,13.2466,2,13.1037,38.5338,250.3413,2,184.33,179.11,2
2018-05-05T04:31:40,2,4.534634,1000.0,2,967.532,29.1123,2,2,13.244,2,13.1012,38.5334,250.35516,2,183.55,178.36,2
2018-05-05T05:01:39,2,4.534824,1000.0,2,967.544,29.1124,2,2,13.2454,2,13.1025,38.5338,250.34762,2,183.13,177.95,2
2018-05-05T05:31:39,2,4.535137,1000.0,2,967.565,29.112,2,2,13.2481,2,13.1052,38.534,250.33346,2,183.14,177.96,2
2018-05-05T06:01:40,2,4.535286,1000.0,2,967.566,29.1117,2,2,13.2495,2,13.1066,38.5341,250.32637,2,183.25,178.06,2
2018-05-05T06:31:39,2,4.535523,1000.0,2,967.577,29.1124,2,2,13.2506,2,13.1076,38.5353,250.31895,2,183.3,178.12,2
2018-05-05T07:01:39,2,4.536141,1000.0,2,967.589,29.112,2,2,13.2556,2,13.1127,38.5361,250.29209,2,183.71,178.51,2
2018-05-05T07:31:40,2,4.536209,1000.0,2,967.576,29.112,2,2,13.2561,2,13.1132,38.5362,250.28933,2,183.61,178.42,2
2018-05-05T08:01:39,2,4.535584,1000.0,2,967.566,29.1122,2,2,13.2512,2,13.1083,38.5352,250.31585,2,182.95,177.78,2
2018-05-05T08:31:39,2,4.535523,1000.0,2,967.566,29.1123,2,2,13.2507,2,13.1078,38.5351,250.31848,2,182.89,177.72,2
2018-05-05T09:01:40,2,4.535489,1000.0,2,967.555,29.1117,2,2,13.251,2,13.1081,38.5345,250.31813,2,182.89,177.72,2
2018-05-05T09:31:39,2,4.535055,1000.0,2,967.555,29.1128,2,2,13.2466,2,13.1037,38.5348,250.33964,2,182.82,177.65,2
2018-05-05T10:01:39,2,4.534159,1000.0,2,967.521,29.1125,2,2,13.2403,2,13.0975,38.5326,250.37528,2,183.03,177.85,2
2018-05-05T10:31:40,2,4.533535,1000.0,2,967.511,29.1127,2,2,13.2354,2,13.0926,38.5316,250.4018,2,183.13,177.95,2
2018-05-05T11:01:39,2,4.533481,1000.0,2,967.487,29.1126,2,2,13.2351,2,13.0923,38.5314,250.40361,2,183.29,178.11,2
2018-05-05T11:31:39,2,4.534356,1000.0,2,967.477,29.1124,2,2,13.2418,2,13.099,38.5329,250.3669,2,182.9,177.73,2
2018-05-05T12:01:40,2,4.535686,1000.0,2,967.477,29.1121,2,2,13.2521,2,13.1092,38.5353,250.3111,2,182.7,177.53,2
2018-05-05T12:31:39,2,4.536731,1000.0,2,967.453,29.1114,2,2,13.2606,2,13.1177,38.5367,250.2658,2,182.8,177.63,2
2018-05-05T13:01:39,2,4.536942,1000.0,2,967.442,29.1122,2,2,13.2615,2,13.1185,38.5379,250.25951,2,183.06,177.88,2
2018-05-05T13:31:40,2,4.536446,1000.0,2,967.42,29.1117,2,2,13.2582,2,13.1153,38.5364,250.27835,2,182.79,177.62,2
2018-05-05T14:01:39,2,4.536345,1000.0,2,967.42,29.1125,2,2,13.2566,2,13.1137,38.5371,250.28534,2,182.75,177.58,2
2018-05-05T14:31:39,2,4.535103,1000.0,2,967.409,29.1122,2,2,13.2477,2,13.1048,38.5342,250.33529,2,183.09,177.91,2
2018-05-05T15:01:40,2,4.535313,1000.0,2,967.431,29.1127,2,2,13.2487,2,13.1059,38.5352,250.32834,2,183.1,177.92,2
2018-05-05T15:31:39,2,4.53513,1000.0,2,967.431,29.112,2,2,13.248,2,13.1052,38.5341,250.3337,2,183.58,178.38,2
2018-05-05T16:01:39,2,4.53536,1000.0,2,967.442,29.1123,2,2,13.2495,2,13.1066,38.5348,250.32502,2,184.49,179.27,2
2018-05-05T16:31:40,2,4.536012,1000.0,2,967.442,29.1122,2,2,13.2545,2,13.1116,38.536,250.29781,2,184.9,179.67,2
2018-05-05T17:01:39,2,4.536446,1000.0,2,967.465,29.112,2,2,13.258,2,13.115,38.5367,250.27931,2,184.76,179.53,2
2018-05-05T17:31:39,2,4.537193,1000.0,2,967.464,29.1116,2,2,13.2639,2,13.1209,38.5378,250.24729,2,184.18,178.97,2
2018-05-05T18:01:40,2,4.537254,1000.0,2,967.475,29.1116,2,2,13.2644,2,13.1214,38.5379,250.2449,2,184.46,179.24,2
2018-05-05T18:31:39,2,4.53608,1000.0,2,967.487,29.1118,2,2,13.2554,2,13.1124,38.5358,250.29395,2,184.87,179.64,2
2018-05-05T19:01:39,2,4.536317,1000.0,2,967.498,29.1121,2,2,13.2568,2,13.1139,38.5366,250.28516,2,184.95,179.72,2
2018-05-05T19:31:40,2,4.536039,1000.0,2,967.498,29.1119,2,2,13.2549,2,13.112,38.5358,250.29602,2,185.04,179.8,2
2018-05-05T20:01:39,2,4.537084,1000.0,2,967.475,29.1118,2,2,13.2629,2,13.1199,38.5378,250.25256,2,185.05,179.82,2
2018-05-05T20:31:39,2,4.538102,1000.0,2,967.486,29.1116,2,2,13.2707,2,13.1277,38.5397,250.21004,2,184.88,179.65,2
2018-05-05T21:01:40,2,4.538293,1000.0,2,967.476,29.1119,2,2,13.2718,2,13.1288,38.5403,250.20318,2,185.11,179.87,2
2018-05-05T21:31:39,2,4.537716,1000.0,2,967.476,29.1118,2,2,13.2677,2,13.1247,38.539,250.22638,2,185.2,179.96,2
2018-05-05T22:01:39,2,4.537145,1000.0,2,967.464,29.1119,2,2,13.2633,2,13.1203,38.538,250.25015,2,185.26,180.02,2
2018-05-05T22:31:40,2,4.536826,1000.0,2,967.453,29.1121,2,2,13.2606,2,13.1177,38.5376,250.26421,2,185.15,179.92,2
2018-05-05T23:01:39,2,4.536908,1000.0,2,967.454,29.112,2,2,13.2613,2,13.1184,38.5377,250.26055,2,185.25,180.01,2
2018-05-05T23:31:39,2,4.537254,1000.0,2,967.43,29.1118,2,2,13.2642,2,13.1212,38.5381,250.24532,2,184.97,179.74,2
2018-05-06T00:01:40,2,4.537281,1000.0,2,967.442,29.1118,2,2,13.2644,2,13.1214,38.5381,250.24419,2,184.53,179.31,2
2018-05-06T00:31:39,2,4.53758,1000.0,2,967.42,29.1117,2,2,13.2667,2,13.1237,38.5387,250.23183,2,184.31,179.09,2
2018-05-06T01:01:39,2,4.537661,1000.0,2,967.419,29.1121,2,2,13.267,2,13.124,38.5392,250.22955,2,184.39,179.17,2
2018-05-06T01:31:40,2,4.537397,1000.0,2,967.43,29.1121,2,2,13.2649,2,13.1219,38.5388,250.24064,2,184.36,179.14,2
2018-05-06T02:01:39,2,4.537078,1000.0,2,967.43,29.1121,2,2,13.2625,2,13.1196,38.5381,250.25379,2,184.8,179.57,2
2018-05-06T02:31:39,2,4.538014,1000.0,2,967.454,29.1124,2,2,13.2693,2,13.1263,38.5403,250.21609,2,186.31,181.04,2
2018-05-06T03:01:40,2,4.538517,1000.0,2,967.464,29.112,2,2,13.2734,2,13.1304,38.5409,250.19414,2,187.3,182.0,2
2018-05-06T03:31:39,2,4.538727,1000.0,2,967.475,29.1121,2,2,13.2749,2,13.1319,38.5414,250.18581,2,187.83,182.52,2
2018-05-06T04:01:39,2,4.538143,1000.0,2,967.486,29.1122,2,2,13.2704,2,13.1274,38.5403,250.21028,2,186.94,181.65,2
2018-05-06T04:31:40,2,4.538272,1000.0,2,967.52,29.1125,2,2,13.2711,2,13.1281,38.5408,250.20585,2,187.55,182.24,2
2018-05-06T05:01:39,2,4.538354,1000.0,2,967.555,29.1124,2,2,13.2718,2,13.1287,38.541,250.20245,2,187.69,182.38,2
2018-05-06T05:31:39,2,4.538204,1000.0,2,967.565,29.1125,2,2,13.2706,2,13.1275,38.5407,250.20886,2,188.12,182.8,2
2018-05-06T06:01:40,2,4.537994,1000.0,2,967.588,29.1123,2,2,13.2691,2,13.1261,38.5401,250.21699,2,187.99,182.67,2
2018-05-06T06:31:39,2,4.538252,1000.0,2,967.588,29.1128,2,2,13.2706,2,13.1275,38.5412,250.20808,2,188.43,183.1,2
2018-05-06T07:01:39,2,4.537736,1000.0,2,967.599,29.1124,2,2,13.2671,2,13.1241,38.5397,250.22797,2,187.82,182.5,2
2018-05-06T07:31:40,2,4.538313,1000.0,2,967.61,29.1126,2,2,13.2713,2,13.1282,38.5411,250.20478,2,187.81,182.5,2
2018-05-06T08:01:39,2,4.538584,1000.0,2,967.61,29.1122,2,2,13.2737,2,13.1306,38.5412,250.19243,2,187.61,182.3,2
2018-05-06T08:31:39,2,4.537974,1000.0,2,967.611,29.1122,2,2,13.2691,2,13.126,38.54,250.21757,2,186.74,181.46,2
2018-05-06T09:01:40,2,4.53868,1000.0,2,967.599,29.112,2,2,13.2746,2,13.1316,38.5412,250.18761,2,186.45,181.17,2
2018-05-06T09:31:39,2,4.53999,1000.0,2,967.588,29.1121,2,2,13.2844,2,13.1412,38.5439,250.13401,2,187.22,181.92,2
2018-05-06T10:01:39,2,4.540947,1000.0,2,967.588,29.1116,2,2,13.292,2,13.1488,38.5453,250.09297,2,187.15,181.85,2
2018-05-06T10:31:40,2,4.541157,1000.0,2,967.576,29.1117,2,2,13.2935,2,13.1503,38.5458,250.08462,2,187.18,181.89,2
2018-05-06T11:01:39,2,4.54018,1000.0,2,967.565,29.1117,2,2,13.2861,2,13.143,38.5439,250.12507,2,186.34,181.07,2
2018-05-06T11:31:39,2,4.539671,1000.0,2,967.576,29.1114,2,2,13.2826,2,13.1395,38.5426,250.14507,2,186.34,181.07,2
2018-05-06T12:01:40,2,4.540363,1000.0,2,967.554,29.1118,2,2,13.2875,2,13.1443,38.5443,250.11763,2,187.06,181.77,2
2018-05-06T12:31:39,2,4.54113,1000.0,2,967.52,29.1117,2,2,13.2933,2,13.1501,38.5458,250.08572,2,188.84,183.5,2
2018-05-06T13:01:39,2,4.540974,1000.0,2,967.509,29.1115,2,2,13.2923,2,13.1491,38.5453,250.09154,2,188.93,183.58,2
2018-05-06T13:31:40,2,4.540716,1000.0,2,967.475,29.1118,2,2,13.2901,2,13.1469,38.5451,250.10318,2,189.13,183.78,2
2018-05-06T14:01:39,2,4.541205,1000.0,2,967.464,29.1119,2,2,13.2937,2,13.1505,38.5462,250.08329,2,189.42,184.06,2
2018-05-06T14:31:39,2,4.541932,1000.0,2,967.453,29.112,2,2,13.299,2,13.1558,38.5477,250.05368,2,189.76,184.39,2
2018-05-06T15:01:40,2,4.54223,1000.0,2,967.453,29.1118,2,2,13.3014,2,13.1582,38.5482,250.04088,2,189.84,184.47,2
2018-05-06T15:31:39,2,4.542271,1000.0,2,967.44,29.1116,2,2,13.302,2,13.1587,38.548,250.03836,2,189.83,184.46,2
2018-05-06T16:01:39,2,4.542162,1000.0,2,967.464,29.1116,2,2,13.3011,2,13.1579,38.5478,250.04295,2,189.98,184.61,2
2018-05-06T16:31:40,2,4.542312,1000.0,2,967.464,29.1118,2,2,13.3021,2,13.1588,38.5483,250.03746,2,190.43,185.05,2
2018-05-06T17:01:39,2,4.542047,1000.0,2,967.474,29.1117,2,2,13.3002,2,13.157,38.5476,250.04787,2,190.52,185.13,2
2018-05-06T17:31:39,2,4.542101,1000.0,2,967.496,29.1118,2,2,13.3004,2,13.1572,38.5479,250.04629,2,190.66,185.27,2
2018-05-06T18:01:40,2,4.542251,1000.0,2,967.52,29.1116,2,2,13.3018,2,13.1585,38.548,250.03945,2,190.61,185.21,2
2018-05-06T18:31:39,2,4.542393,1000.0,2,967.519,29.1119,2,2,13.3026,2,13.1593,38.5485,250.03454,2,190.72,185.32,2
2018-05-06T19:01:39,2,4.542719,1000.0,2,967.52,29.1116,2,2,13.3053,2,13.162,38.5489,250.02014,2,190.7,185.31,2
2018-05-06T19:31:40,2,4.542692,1000.0,2,967.519,29.1114,2,2,13.3053,2,13.162,38.5486,250.02059,2,190.82,185.43,2
2018-05-06T20:01:39,2,4.542699,1000.0,2,967.53,29.1116,2,2,13.3052,2,13.1619,38.5488,250.02094,2,190.63,185.24,2
2018-05-06T20:31:39,2,4.542583,1000.0,2,967.543,29.1114,2,2,13.3045,2,13.1613,38.5484,250.02495,2,190.57,185.17,2
2018-05-06T21:01:40,2,4.542448,1000.0,2,967.554,29.1116,2,2,13.3033,2,13.16,38.5483,250.03136,2,190.48,185.09,2
2018-05-06T21:31:39,2,4.542604,1000.0,2,967.541,29.1119,2,2,13.3042,2,13.1609,38.5489,250.02575,2,190.75,185.36,2
2018-05-06T22:01:39,2,4.542339,1000.0,2,967.543,29.1122,2,2,13.3019,2,13.1586,38.5487,250.03776,2,190.96,185.56,2
2018-05-06T22:31:40,2,4.542794,1000.0,2,967.531,29.1115,2,2,13.3059,2,13.1627,38.549,250.01683,2,191.06,185.65,2
2018-05-06T23:01:39,2,4.542264,1000.0,2,967.52,29.1117,2,2,13.3018,2,13.1585,38.5481,250.03922,2,190.89,185.49,2
2018-05-06T23:31:39,2,4.541755,1000.0,2,967.531,29.1117,2,2,13.298,2,13.1547,38.5471,250.06014,2,190.87,185.47,2